{"data":{"norad_id":68773,"epoch":"2026-09-20T04:13:28.889184Z","epoch_age_seconds":67954,"freshness":"FRESH","line1":"1 68773U 26086H   26263.17602881 -.00001662  00000+0 -49152-4 0  9996","line2":"2 68773  97.2849 298.5813 0000964  97.1609 262.9743 15.33447479 23633","mean_motion":15.33447479,"eccentricity":9.64e-5,"inclination_deg":97.2849,"raan_deg":298.5813,"arg_perigee_deg":97.1609,"mean_anomaly_deg":262.9743,"bstar":-4.9152e-5,"rev_number":2363,"period_min":93.9060528463,"perigee_km":464.87606867039,"apogee_km":466.19552878599,"semimajor_km":6843.6727987282,"source":"CELESTRAK","updated_at":"2026-09-20T09:00:43.998791Z"}}